BREEZE-M DEB, 32040

Orbit data source: Space-Track

BREEZE-M DEB, 32040 is space debris in HEO originally from a launch on Tue, 28 Feb 2006 UTC launched from the Tyuratam Missile And Space Complex (TTMTR). Debris objects in space refer to the collection of defunct objects orbiting the Earth. Examples of debris include non-operational satellites, rocket bodies, and fragments generated from explosions, collisions, or faulty payload assembly.

Loading next visibility...
Identifier
32040, 2006-006T
Orbit
HEO
Country
Flag of CISCIS
Related business
Manufacturer
Khrunichev
Mission
Spacecraft
Bus & Motor
Unknown
Mass
Unknown
Launch date (UTC)
2006-02-28 (20 years ago)
Launch vehicle
Unknown
Launch site
Tyuratam Missile And Space Complex (TTMTR)
Object type
Payload
Rocket body
Debris
Shape & HBR
Unknown shape, 0.1 m
Radar Cross Section
Medium (>0.1 m² and <1 m²)

Expand to show TLE details & history
Last TLE update: 5 months ago

TLE from 5 months ago
0 BREEZE-M DEB
1 32040U 06006T   26020.12532818  .00012081  00000-0  56334-2 0  9996
2 32040  51.6253 249.8457 4834973 233.0033  72.3801  5.79246972261847
Epoch: 2026-01-20T03:00Z
TLE epoch observation values (Epoch: 2026-01-20T03:00:28.354Z)
Latitude
Longitude
85.22598°
Altitude
7,784.162 km
Speed
5.086 km/s
True Right ascension
16h 39m 25s
True Declination
0° 00' 00"
Sunlit
Object was in daylight at epoch
Visualization orbit readout
Latitude
Unknown
Longitude
Unknown
Altitude
Unknown
Speed
Unknown
Apparent Right ascension
Unknown
Apparent Declination
Unknown
Sunlit
N/A
Visualization observer readout
Local Sidereal Time
14:10:07
Azimuth
Unknown
Elevation
Unknown
Doppler factor
Unknown
Orbital elements
Apogee altitude
13,051.261 km
Perigee altitude
386.511 km
Semi-major axis
13,097.023 km
Eccentricity
0.4835
Inclination
51.6253°
RAAN
249.8457°
Arg. of periapsis
233.0033°
True anomaly
127.06584°
Mean anomaly
72.3801°
Eccentric anomaly
99.68743°
Mean motion
1.44805 °/min
Orbital period
248.61 mins
BSTAR
0.0056334
Loading maneuver chart data...
Computing Atmospheric mass density...
Loading historical data...
Loading historical data...
Loading historical data...
Loading historical data...
Loading historical data...
Loading historical data...
Loading historical data...

Documentation

Showing up to 5 results
|